Retour au catalogue

COSMOS 839 DEB

ActifUNKNOWN
NORAD 15523·DEBRIS·🇷🇺 Russia

Lancé Jul 8, 1976 depuis Plesetsk Cosmodrome

Loading…

Prochains Passages (prochaines 24 heures)

TLE

FraisSource: Space-Track

Époque: Sep 14, 2026, 11:07 UTC

1 15523U 76067BH  26257.46320755 -.00000039  00000-0  44072-4 0  9990
2 15523  65.9289 280.2736 0746551 194.4160 242.6367 12.47646282666974

Suivez COSMOS 839 DEB en temps réel avec AllMySat

Download on the App Store